Location: Wildcat Hills Observatory
(41.6350°N, 103.6812°W)
Time: 21:31:33
(UTC-07:00)

Daily predictions for brighter satellites

Satellite Brightness Start Highest point End
(mag) Time Altitude Azimuth Time Altitude Azimuth Time Altitude Azimuth
Cosmos 1461 3.8 17:55:48 10° N 17:59:15 27° NE 18:02:45 10° ESE
Cosmos 1745 Rocket 4.1 17:53:50 10° S 18:00:02 60° E 18:06:12 10° NNE
Cosmos 2322 Rocket 2.4 17:57:55 10° NNW 18:03:21 49° ENE 18:08:46 10° SE
Meteor 1-28 Rocket 3.2 18:01:10 10° NNE 18:04:58 64° E 18:08:44 10° S
Okean 1 4.2 18:04:42 10° NNE 18:08:17 29° ENE 18:11:51 10° SE
NOSS 2-2 (C) 3.7 18:05:17 10° SW 18:09:18 76° NW 18:13:57 10° NNE
FREGAT/IRIS 3.5 18:07:22 10° SE 18:10:04 28° ENE 18:12:48 10° N
SL-8 R/B 4.3 18:05:34 10° WNW 18:10:18 58° SW 18:15:02 10° SE
DELTA 2 R/B (1) 3.8 18:06:24 10° W 18:12:01 73° S 18:17:37 10° E
ERBS 3.9 18:11:26 10° WNW 18:14:41 38° SW 18:17:55 10° SSE
Cosmos 1992 Rocket 4.1 18:09:52 10° NNW 18:15:08 87° WSW 18:20:22 10° SSE
Cosmos 1346 Rocket 3.7 18:14:21 10° NNW 18:18:13 53° W 18:22:00 10° S
Cosmos 407 Rocket 3.8 18:13:14 10° S 18:18:14 48° ESE 18:23:20 10° NNE
ALOS 2.9 18:16:47 10° SE 18:20:59 34° ENE 18:25:12 10° N
deb Kosmos-1763 4.1 18:21:06 10° S 18:24:51 61° ESE 18:28:36 10° NNE
Meteor 1-25 Rocket 4.2 18:19:27 10° S 18:25:02 76° E 18:30:43 10° NNE
COSMOS 2428 4.3 18:22:03 10° N 18:25:31 16° NE 18:27:55 13° ENE
FENGYUN 3A 4.1 18:20:34 10° SE 18:25:35 41° ENE 18:30:38 10° N
H-2A R/B 4.0 18:23:09 10° ESE 18:25:57 21° ENE 18:28:47 10° NNE
Cosmos 1975 Rocket 3.7 18:21:49 10° NNW 18:26:05 59° W 18:30:18 10° S
SKYMED 2 4.3 18:22:28 10° N 18:26:44 56° WNW 18:30:58 10° SSW
Cosmos 1812 2.7 18:29:43 10° N 18:33:36 87° W 18:37:26 10° S
Cosmos 1238 Rocket 3.3 18:31:54 10° NNE 18:34:23 22° ENE 18:35:11 20° E
Meteor 1-11 Rocket 4.3 18:31:41 10° SSE 18:36:49 35° E 18:42:04 10° NNE
Helios 1B rocket 4.2 18:38:47 15° ESE 18:38:47 15° ESE 18:40:12 10° SE
Cosmos 1190 Rocket 4.0 18:37:40 10° SSW 18:42:51 87° WNW 18:48:05 10° NNE
Cosmos 1536 Rocket 3.5 18:40:29 10° N 18:44:56 66° E 18:49:23 10° SSE
Cosmos 1140 Rocket 4.0 18:41:33 10° SSE 18:46:10 35° E 18:50:49 10° NE
Cosmos 2219 4.4 18:47:27 10° SSE 18:51:31 21° ESE 18:51:31 21° ESE
Spot 2 Rocket 3.5 18:48:30 10° SSE 18:53:24 56° ENE 18:58:23 10° N
Tiangong 2 1.2 18:50:32 10° W 18:53:35 66° SSW 18:54:42 34° SE
Resurs 01 Rocket 1.6 18:49:19 10° SSE 18:53:37 56° ENE 18:57:57 10° N
Cosmos 2360 Rocket 2.4 18:50:43 10° NNW 18:56:14 51° ENE 19:00:37 16° SE
Cosmos 1602 3.7 18:54:24 10° S 18:58:10 56° E 19:02:00 10° NNE
GEOS 3 Rocket 3.6 18:53:39 10° NE 18:58:55 89° NW 19:04:13 10° SW
Cosmos 2219 Rocket 3.7 18:55:58 10° N 18:59:27 16° NE 18:59:34 16° NE
DNEPR-1 R/B 3.9 18:55:27 10° NW 18:59:39 64° WSW 19:03:52 10° SSE
Cosmos 614 Rocket 4.4 18:56:11 10° SSE 19:00:46 35° ESE 19:03:36 20° NE
HJ-1C 3.5 19:01:09 10° S 19:04:31 78° WSW 19:07:54 10° NNW
Cosmos 2181 Rocket 3.9 18:58:57 10° N 19:05:11 74° E 19:11:30 10° SSE
BREEZE-M DEB (TANK) 2.4 19:05:43 10° NW 19:08:12 57° NNE 19:09:29 37° E
Envisat 4.1 19:10:22 26° NE 19:10:22 26° NE 19:13:56 10° N
SL-19 R/B 4.3 19:05:04 10° SSE 19:10:40 87° ENE 19:16:39 10° NNW
Cosmos 1954 Rocket 3.9 19:05:55 10° SSW 19:11:05 80° ESE 19:16:20 10° NNE
Cosmos 1633 2.5 19:08:26 10° S 19:12:07 87° W 19:15:50 10° N
SJ-6B 4.3 19:10:17 10° SSW 19:14:05 39° W 19:17:50 10° NNW
Cosmos 1833 4.1 19:10:28 10° SSW 19:16:11 79° ESE 19:21:51 10° NNE
Cosmos 1300 Rocket 3.5 19:13:22 10° S 19:17:46 89° W 19:22:14 10° N
Resurs 1-3 3.5 19:14:15 10° SSE 19:18:39 88° ENE 19:23:03 10° NNW
Cosmos 2333 Rocket 3.7 19:17:06 10° N 19:20:34 20° NE 19:20:34 20° NE
TSX-5 3.7 19:20:56 10° SW 19:24:04 59° WNW 19:24:36 50° NNW
Cosmos 2184 Rocket 4.0 19:19:34 10° SSE 19:25:41 54° E 19:31:47 10° NNE
Cosmos 2074 Rocket 4.0 19:20:00 10° SSE 19:26:04 57° E 19:32:12 10° NNE
BREEZE-M DEB (TANK) 4.2 19:20:54 10° WNW 19:27:11 37° SW 19:28:34 24° S
Cosmos 1709 Rocket 4.5 19:21:12 10° SSW 19:27:22 62° W 19:33:30 10° N
SL-16 R/B 3.8 19:23:32 10° NW 19:28:37 35° WSW 19:33:42 10° SSW
Gbstr 26 Del rocket 3.7 19:27:32 10° SSW 19:29:58 33° S 19:29:58 33° S
Meteor 1-19 Rocket 4.3 19:26:17 10° NNW 19:31:57 77° W 19:37:40 10° S
Cosmos 1340 3.9 19:29:50 10° NNW 19:33:26 41° W 19:37:00 10° SSW
Cosmos 1536 3.5 19:34:33 10° S 19:43:48 - N 19:37:18 43° SSW
Cosmos 1818 4.4 19:36:23 10° SW 19:41:39 48° NW 19:46:10 14° NNE
Meteor 1-5 Rocket 4.2 19:37:03 10° S 19:42:56 65° E 19:48:50 10° NNE
BREEZE-M DEB (TANK) 4.2 19:40:14 10° SW 19:42:08 25° SW 19:42:08 25° SW
Okean 1 Rocket 3.7 19:42:25 10° SSW 19:46:50 57° W 19:51:16 10° N
Cosmos 2322 Rocket 4.4 19:42:40 10° NW 19:47:02 24° WSW 19:51:23 10° SSW
Helios 1A 3.2 19:48:26 65° WSW 19:48:38 66° WSW 19:52:48 10° NNW
CZ-2D R/B 4.1 19:48:13 42° SW 19:48:52 48° W 19:52:35 10° NNW
Cosmos 1741 Rocket 3.8 19:44:44 10° SSW 19:49:58 82° ESE 19:50:14 78° ENE
Cosmos 2285 Rocket 4.1 19:44:20 10° NNW 19:50:41 56° ENE 19:50:43 56° ENE
DELTA 2 R/B (1) 3.9 19:52:49 10° W 19:58:15 52° SSW 19:58:28 52° S
ALOS 4.5 19:54:41 10° SSW 19:58:28 24° W 20:02:16 10° NW
Cosmos 2322 4.2 19:52:54 10° NNW 19:58:31 59° WSW 20:00:58 33° S
Meteor 1-23 Rocket 4.3 19:53:45 10° NNW 19:59:34 77° W 20:01:46 40° S
Okean 1-7 Rocket 4.3 19:57:20 10° NNW 20:01:46 52° W 20:02:21 48° WSW
Cosmos 1570 Rocket 4.0 19:56:54 10° NNW 20:02:09 76° WSW 20:02:11 76° WSW
Meteor 2-4 Rocket 4.4 20:04:21 10° NNW 20:09:44 49° W 20:13:14 20° SSW
COSMOS 2428 2.7 20:04:52 10° NNW 20:10:00 73° NNW 20:10:00 73° NNW
Cosmos 2237 4.3 20:05:32 10° NNW 20:11:14 70° WSW 20:11:31 68° SW
Cosmos 2333 4.5 20:09:21 10° NNW 20:14:04 62° NNW 20:14:04 62° NNW
Cosmos 2237 Rocket 3.8 20:17:26 10° N 20:19:49 23° N 20:19:49 23° N
Cosmos 2219 4.2 20:29:40 10° SW 20:33:37 41° WSW 20:33:37 41° WSW
Cosmos 2360 Rocket 4.2 20:35:30 10° NW 20:39:50 23° W 20:42:30 16° SW
Cosmos 2219 Rocket 3.6 20:38:31 10° NNW 20:41:19 31° NNW 20:41:19 31° NNW
USA 229 DEB 4.5 20:57:06 10° NW 21:02:29 50° WNW 21:02:29 50° WNW
USA 229 4.5 20:57:11 10° NW 21:02:34 50° WNW 21:02:34 50° WNW
Cosmos 2333 Rocket 4.1 21:00:23 10° NNW 21:02:36 24° NNW 21:02:36 24° NNW
